[Date Prev][Date Next][Thread Prev][Thread Next] - [Date Index][Thread Index][Author Index]
2 Line ISS Keps 7-1
- Subject: [sarex] 2 Line ISS Keps 7-1
- From: "Dave Larsen PhD" <doc@xxxxxxxxxxx>
- Date: Sun, 1 Jul 2001 03:17:36 -0700
ISS
1 25544U 98067A 01182.18744213 .00037124 00000-0 39669-3 0 1548
2 25544 51.5719 17.8656 0016390 227.3553 290.5780 15.63366317149263
----
Via the sarex mailing list at AMSAT.ORG courtesy of AMSAT-NA.
To unsubscribe, send "unsubscribe sarex" to Majordomo@amsat.org
AMSAT Home